BTY002 LIRF-LEMG

Flight info

Callsign BTY002
Flight time 2h 22m
Altitude 37000
Route ESINO DCT ABIDU DCT GITRI DCT OKIDO DCT GOKMI DCT SUPUX DCT KUPIM DCT SUXER DCT RIPAL DCT MORSS DCT MHN DCT CDP DCT LULAK DCT EDULI DCT OKITI DCT IBEBA DCT BAVER DCT GERVU DCT ALT DCT RESTU DCT TOSGA DCT ROLAS DCT UNTOS
Aircraft A21N/M-SDE2E3FGHIJ1RWXY/LB1

Departure

Time 2026-05-06 06:10
Airport Rome–Fiumicino Leonardo da Vinci International Airport (LIRF)

Arrival

Time 2026-05-06 08:33
Airport Málaga-Costa del Sol Airport (LEMG)
Time Latitude Longitude Altitude Speed Heading
2026-05-06 05:50 41.80241 12.26157 21 ft 0 kts 25°
2026-05-06 06:02 41.80233 12.26152 19 ft 4 kts 25°
2026-05-06 06:02 41.80208 12.26137 22 ft 4 kts 21°
2026-05-06 06:03 41.80184 12.26128 21 ft 4 kts 353°
2026-05-06 06:03 41.80170 12.26137 20 ft 1 kts 295°
2026-05-06 06:05 41.80171 12.26135 21 ft 1 kts 295°
2026-05-06 06:05 41.80182 12.26103 21 ft 6 kts 294°
2026-05-06 06:06 41.80221 12.26050 19 ft 11 kts 349°
2026-05-06 06:06 41.80307 12.26085 19 ft 15 kts 25°
2026-05-06 06:06 41.80418 12.26154 23 ft 20 kts 24°
2026-05-06 06:06 41.80538 12.26268 21 ft 25 kts 67°
2026-05-06 06:07 41.80607 12.26523 21 ft 34 kts 70°
2026-05-06 06:07 41.80692 12.26825 21 ft 14 kts 70°
2026-05-06 06:07 41.80718 12.26916 19 ft 11 kts 69°
2026-05-06 06:07 41.80739 12.26991 19 ft 0 kts 69°
2026-05-06 06:08 41.80752 12.27026 21 ft 7 kts 56°
2026-05-06 06:08 41.80799 12.27053 19 ft 9 kts 355°
2026-05-06 06:08 41.80863 12.27025 19 ft 11 kts 338°
2026-05-06 06:09 41.80909 12.26999 19 ft 0 kts 335°
2026-05-06 06:09 41.80922 12.26991 21 ft 9 kts 334°
2026-05-06 06:09 41.80955 12.26917 18 ft 11 kts 260°
2026-05-06 06:09 41.80949 12.26891 20 ft 1 kts 247°
2026-05-06 06:10 41.80865 12.26595 21 ft 70 kts 249°
2026-05-06 06:10 41.80617 12.25696 22 ft 133 kts 251°
2026-05-06 06:10 41.80251 12.24311 93 ft 171 kts 252°
2026-05-06 06:10 41.79955 12.22847 837 ft 157 kts 250°
2026-05-06 06:11 41.79487 12.21481 1252 ft 168 kts 241°
2026-05-06 06:11 41.79241 12.19902 1839 ft 185 kts 261°
2026-05-06 06:11 41.79213 12.18106 2386 ft 201 kts 263°
2026-05-06 06:11 41.79185 12.16816 2716 ft 215 kts 261°
2026-05-06 06:12 41.78645 12.14173 3723 ft 226 kts 229°
2026-05-06 06:12 41.77905 12.13182 4405 ft 229 kts 219°
2026-05-06 06:12 41.76672 12.11795 5481 ft 231 kts 220°
2026-05-06 06:12 41.75463 12.10398 6534 ft 228 kts 223°
2026-05-06 06:13 41.74286 12.08997 7490 ft 226 kts 224°
2026-05-06 06:13 41.73110 12.07574 8345 ft 228 kts 224°
2026-05-06 06:13 41.71784 12.06300 8845 ft 250 kts 207°
2026-05-06 06:13 41.70013 12.05701 9359 ft 273 kts 192°
2026-05-06 06:14 41.68103 12.05390 10145 ft 281 kts 191°
2026-05-06 06:14 41.66084 12.05064 10503 ft 303 kts 191°
2026-05-06 06:14 41.63912 12.04675 10811 ft 325 kts 193°
2026-05-06 06:14 41.61728 12.03792 11084 ft 341 kts 207°
2026-05-06 06:15 41.59680 12.02052 11447 ft 354 kts 219°
2026-05-06 06:15 41.57740 11.99965 12093 ft 360 kts 221°
2026-05-06 06:15 41.55782 11.97830 12795 ft 364 kts 220°
2026-05-06 06:15 41.53798 11.95687 13487 ft 368 kts 220°
2026-05-06 06:16 41.51787 11.93530 14127 ft 372 kts 220°
2026-05-06 06:16 41.49786 11.91402 14718 ft 375 kts 219°
2026-05-06 06:16 41.47733 11.89237 15313 ft 377 kts 219°
2026-05-06 06:16 41.45659 11.87052 15867 ft 380 kts 219°
2026-05-06 06:17 41.43573 11.84852 16435 ft 384 kts 219°
2026-05-06 06:17 41.41468 11.82630 16990 ft 387 kts 219°
2026-05-06 06:17 41.39448 11.80234 17529 ft 389 kts 228°
2026-05-06 06:17 41.37894 11.77283 18027 ft 392 kts 243°
2026-05-06 06:18 41.36865 11.73952 18512 ft 396 kts 250°
2026-05-06 06:18 41.35950 11.70479 18979 ft 398 kts 250°
2026-05-06 06:18 41.35030 11.66977 19484 ft 400 kts 250°
2026-05-06 06:18 41.34091 11.63469 19991 ft 402 kts 250°
2026-05-06 06:19 41.33153 11.60006 20474 ft 404 kts 250°
2026-05-06 06:19 41.32192 11.56478 20966 ft 406 kts 250°
2026-05-06 06:19 41.31223 11.52931 21466 ft 408 kts 249°
2026-05-06 06:19 41.30261 11.49414 21973 ft 410 kts 249°
2026-05-06 06:20 41.29290 11.45859 22486 ft 413 kts 250°
2026-05-06 06:20 41.28310 11.42258 22991 ft 415 kts 250°
2026-05-06 06:20 41.27322 11.38636 23501 ft 418 kts 250°
2026-05-06 06:20 41.26323 11.34990 23912 ft 420 kts 249°
2026-05-06 06:21 41.25328 11.31374 24288 ft 422 kts 249°
2026-05-06 06:21 41.24331 11.27757 24644 ft 424 kts 249°
2026-05-06 06:21 41.23318 11.24092 24972 ft 426 kts 249°
2026-05-06 06:21 41.22294 11.20387 25266 ft 427 kts 249°
2026-05-06 06:22 41.21266 11.16676 25594 ft 429 kts 249°
2026-05-06 06:22 41.20231 11.12950 25979 ft 431 kts 249°
2026-05-06 06:22 41.19215 11.09297 26378 ft 431 kts 249°
2026-05-06 06:22 41.18181 11.05612 26881 ft 429 kts 249°
2026-05-06 06:23 41.17142 11.01900 27393 ft 427 kts 249°
2026-05-06 06:23 41.16112 10.98212 27898 ft 425 kts 249°
2026-05-06 06:23 41.15078 10.94526 28393 ft 424 kts 248°
2026-05-06 06:23 41.14053 10.90863 28887 ft 422 kts 248°
2026-05-06 06:24 41.13037 10.87222 29379 ft 420 kts 248°
2026-05-06 06:24 41.12030 10.83631 29853 ft 419 kts 248°
2026-05-06 06:24 41.11010 10.80006 30290 ft 417 kts 248°
2026-05-06 06:24 41.09989 10.76402 30685 ft 416 kts 248°
2026-05-06 06:25 41.08984 10.72820 31070 ft 415 kts 248°
2026-05-06 06:25 41.07980 10.69240 31453 ft 414 kts 248°
2026-05-06 06:25 41.05964 10.62116 32155 ft 413 kts 248°
2026-05-06 06:26 41.04952 10.58552 32496 ft 412 kts 248°
2026-05-06 06:26 41.03946 10.55004 32854 ft 412 kts 248°
2026-05-06 06:26 41.02941 10.51449 33212 ft 411 kts 248°
2026-05-06 06:26 41.01939 10.47906 33551 ft 410 kts 248°
2026-05-06 06:27 41.00936 10.44374 33873 ft 409 kts 248°
2026-05-06 06:27 40.99927 10.40854 34150 ft 408 kts 247°
2026-05-06 06:27 40.98916 10.37342 34385 ft 408 kts 248°
2026-05-06 06:27 40.97928 10.33879 34619 ft 408 kts 248°
2026-05-06 06:28 40.96924 10.30356 34857 ft 407 kts 247°
2026-05-06 06:28 40.95917 10.26846 35074 ft 407 kts 247°
2026-05-06 06:28 40.94911 10.23348 35291 ft 407 kts 247°
2026-05-06 06:28 40.93904 10.19847 35522 ft 407 kts 247°
2026-05-06 06:29 40.92890 10.16339 35715 ft 407 kts 247°
2026-05-06 06:29 40.91878 10.12827 35907 ft 407 kts 247°
2026-05-06 06:29 40.90881 10.09373 36090 ft 407 kts 247°
2026-05-06 06:29 40.89866 10.05865 36263 ft 407 kts 247°
2026-05-06 06:30 40.88851 10.02367 36440 ft 407 kts 247°
2026-05-06 06:30 40.87837 9.98871 36624 ft 407 kts 247°
2026-05-06 06:30 40.86823 9.95374 36791 ft 407 kts 247°
2026-05-06 06:30 40.85821 9.91928 36947 ft 407 kts 247°
2026-05-06 06:31 40.84804 9.88427 36977 ft 408 kts 247°
2026-05-06 06:31 40.82811 9.81407 36972 ft 407 kts 250°
2026-05-06 06:32 40.81100 9.74303 36945 ft 405 kts 250°
2026-05-06 06:32 40.79404 9.67253 36939 ft 405 kts 250°
2026-05-06 06:33 40.77685 9.60145 36941 ft 407 kts 250°
2026-05-06 06:33 40.75962 9.53040 36957 ft 405 kts 250°
2026-05-06 06:34 40.74246 9.45984 36967 ft 405 kts 250°
2026-05-06 06:34 40.72532 9.38953 36955 ft 401 kts 250°
2026-05-06 06:35 40.70829 9.31977 36966 ft 402 kts 250°
2026-05-06 06:35 40.69105 9.24960 36967 ft 401 kts 250°
2026-05-06 06:36 40.67396 9.18001 36973 ft 401 kts 250°
2026-05-06 06:36 40.65667 9.10998 36978 ft 401 kts 250°
2026-05-06 06:37 40.63929 9.03988 36977 ft 403 kts 249°
2026-05-06 06:37 40.62190 8.96997 36964 ft 403 kts 249°
2026-05-06 06:38 40.60444 8.89984 36967 ft 403 kts 249°
2026-05-06 06:38 40.58695 8.82970 36971 ft 403 kts 249°
2026-05-06 06:39 40.56946 8.75985 36963 ft 403 kts 250°
2026-05-06 06:39 40.55193 8.68992 36970 ft 403 kts 250°
2026-05-06 06:40 40.53429 8.61982 36973 ft 404 kts 250°
2026-05-06 06:40 40.51672 8.55035 36974 ft 402 kts 250°
2026-05-06 06:41 40.49902 8.48045 36968 ft 404 kts 250°
2026-05-06 06:41 40.48122 8.41040 36948 ft 402 kts 250°
2026-05-06 06:42 40.46349 8.34086 36971 ft 402 kts 250°
2026-05-06 06:42 40.44567 8.27110 36949 ft 402 kts 250°
2026-05-06 06:43 40.43483 8.19918 36947 ft 407 kts 262°
2026-05-06 06:43 40.43109 8.12501 36951 ft 406 kts 263°
2026-05-06 06:44 40.42723 8.05133 36954 ft 406 kts 263°
2026-05-06 06:44 40.42166 7.97760 36959 ft 404 kts 258°
2026-05-06 06:45 40.41246 7.90472 36968 ft 403 kts 258°
2026-05-06 06:45 40.40327 7.83258 36961 ft 403 kts 258°
2026-05-06 06:46 40.39412 7.75988 36961 ft 403 kts 258°
2026-05-06 06:46 40.38488 7.68717 36959 ft 403 kts 258°
2026-05-06 06:47 40.37558 7.61491 36962 ft 403 kts 258°
2026-05-06 06:47 40.36622 7.54236 36960 ft 403 kts 258°
2026-05-06 06:48 40.35683 7.46973 36966 ft 403 kts 258°
2026-05-06 06:48 40.34744 7.39775 36960 ft 403 kts 257°
2026-05-06 06:49 40.33794 7.32531 36954 ft 403 kts 257°
2026-05-06 06:49 40.32843 7.25283 36960 ft 403 kts 257°
2026-05-06 06:50 40.31880 7.18032 36957 ft 403 kts 257°
2026-05-06 06:50 40.30917 7.10786 36955 ft 403 kts 257°
2026-05-06 06:51 40.29951 7.03541 36963 ft 403 kts 257°
2026-05-06 06:51 40.28985 6.96344 36961 ft 403 kts 257°
2026-05-06 06:52 40.28010 6.89122 36951 ft 403 kts 257°
2026-05-06 06:52 40.27033 6.81887 36957 ft 402 kts 257°
2026-05-06 06:53 40.26055 6.74690 36963 ft 401 kts 257°
2026-05-06 06:53 40.25077 6.67557 36961 ft 401 kts 257°
2026-05-06 06:54 40.24088 6.60365 36959 ft 400 kts 257°
2026-05-06 06:54 40.23100 6.53215 36957 ft 400 kts 257°
2026-05-06 06:55 40.22104 6.46040 36973 ft 401 kts 257°
2026-05-06 06:55 40.21110 6.38878 36958 ft 402 kts 257°
2026-05-06 06:56 40.20099 6.31681 36959 ft 402 kts 257°
2026-05-06 06:56 40.19081 6.24491 36959 ft 402 kts 257°
2026-05-06 06:57 40.18054 6.17283 36960 ft 402 kts 257°
2026-05-06 06:57 40.17028 6.10090 36959 ft 402 kts 257°
2026-05-06 06:58 40.16012 6.02950 36962 ft 402 kts 257°
2026-05-06 06:58 40.14991 5.95753 36959 ft 402 kts 257°
2026-05-06 06:59 40.14131 5.89776 36963 ft 402 kts 257°
2026-05-06 06:59 40.13102 5.82601 36962 ft 402 kts 257°
2026-05-06 07:00 40.12091 5.75396 36959 ft 402 kts 257°
2026-05-06 07:00 40.11084 5.68254 36957 ft 402 kts 257°
2026-05-06 07:01 40.10060 5.61062 36960 ft 402 kts 257°
2026-05-06 07:01 40.09044 5.53909 36959 ft 402 kts 257°
2026-05-06 07:02 40.08012 5.46719 36959 ft 402 kts 257°
2026-05-06 07:02 40.06987 5.39579 36959 ft 402 kts 257°
2026-05-06 07:03 40.05946 5.32398 36977 ft 401 kts 257°
2026-05-06 07:03 40.04906 5.25237 36965 ft 400 kts 257°
2026-05-06 07:04 40.03865 5.18117 36960 ft 401 kts 257°
2026-05-06 07:04 40.02820 5.10979 36958 ft 400 kts 257°
2026-05-06 07:05 40.01776 5.03870 36957 ft 400 kts 257°
2026-05-06 07:05 40.00716 4.96731 36957 ft 400 kts 257°
2026-05-06 07:06 39.99656 4.89605 36964 ft 396 kts 257°
2026-05-06 07:06 39.98608 4.82591 36961 ft 397 kts 257°
2026-05-06 07:07 39.97471 4.75549 36961 ft 396 kts 254°
2026-05-06 07:07 39.96058 4.68596 36958 ft 396 kts 253°
2026-05-06 07:08 39.94645 4.61694 36954 ft 396 kts 253°
2026-05-06 07:08 39.93219 4.54753 36959 ft 396 kts 254°
2026-05-06 07:09 39.91788 4.47821 36960 ft 396 kts 254°
2026-05-06 07:09 39.90358 4.40922 36962 ft 395 kts 253°
2026-05-06 07:10 39.88927 4.34006 36963 ft 396 kts 253°
2026-05-06 07:10 39.87485 4.27079 36963 ft 396 kts 253°
2026-05-06 07:11 39.86041 4.20164 36969 ft 395 kts 253°
2026-05-06 07:11 39.84605 4.13304 36965 ft 394 kts 253°
2026-05-06 07:12 39.83167 4.06409 36962 ft 394 kts 253°
2026-05-06 07:12 39.81719 3.99514 36967 ft 394 kts 253°
2026-05-06 07:13 39.80266 3.92644 36965 ft 394 kts 253°
2026-05-06 07:13 39.78821 3.85802 36958 ft 394 kts 253°
2026-05-06 07:14 39.77363 3.78925 36960 ft 394 kts 253°
2026-05-06 07:14 39.75894 3.72034 36964 ft 395 kts 253°
2026-05-06 07:15 39.74432 3.65195 36938 ft 396 kts 253°
2026-05-06 07:15 39.72953 3.58277 36957 ft 395 kts 253°
2026-05-06 07:16 39.71468 3.51386 36961 ft 395 kts 253°
2026-05-06 07:16 39.69994 3.44539 36949 ft 395 kts 253°
2026-05-06 07:17 39.68178 3.37790 36953 ft 395 kts 249°
2026-05-06 07:17 39.66288 3.31120 36959 ft 395 kts 249°
2026-05-06 07:18 39.64390 3.24429 36969 ft 395 kts 249°
2026-05-06 07:18 39.62492 3.17728 36951 ft 395 kts 249°
2026-05-06 07:19 39.60588 3.11035 36964 ft 395 kts 249°
2026-05-06 07:19 39.58683 3.04351 36963 ft 395 kts 249°
2026-05-06 07:20 39.56777 2.97691 36960 ft 395 kts 249°
2026-05-06 07:20 39.54857 2.90996 36959 ft 395 kts 249°
2026-05-06 07:21 39.52941 2.84318 36945 ft 396 kts 249°
2026-05-06 07:21 39.51022 2.77654 36943 ft 396 kts 249°
2026-05-06 07:22 39.49087 2.70959 36940 ft 396 kts 249°
2026-05-06 07:22 39.47160 2.64286 36938 ft 395 kts 249°
2026-05-06 07:23 39.45233 2.57650 36934 ft 395 kts 249°
2026-05-06 07:23 39.43291 2.50970 36940 ft 396 kts 249°
2026-05-06 07:24 39.41349 2.44323 36944 ft 396 kts 249°
2026-05-06 07:24 39.39400 2.37644 36947 ft 396 kts 249°
2026-05-06 07:25 39.37446 2.30983 36941 ft 396 kts 249°
2026-05-06 07:25 39.35486 2.24323 36943 ft 396 kts 249°
2026-05-06 07:26 39.33531 2.17689 36948 ft 396 kts 249°
2026-05-06 07:26 39.31575 2.11072 36942 ft 397 kts 249°
2026-05-06 07:27 39.29607 2.04414 36956 ft 396 kts 249°
2026-05-06 07:27 39.27632 1.97766 36952 ft 396 kts 249°
2026-05-06 07:28 39.25657 1.91115 36949 ft 396 kts 249°
2026-05-06 07:28 39.22699 1.81213 36945 ft 396 kts 249°
2026-05-06 07:29 39.20709 1.74562 36947 ft 396 kts 249°
2026-05-06 07:29 39.18731 1.67955 36946 ft 396 kts 249°
2026-05-06 07:30 39.16734 1.61325 36948 ft 396 kts 249°
2026-05-06 07:30 39.14753 1.54753 36946 ft 396 kts 249°
2026-05-06 07:31 39.12752 1.48143 36946 ft 395 kts 249°
2026-05-06 07:31 39.10762 1.41581 36913 ft 394 kts 249°
2026-05-06 07:32 39.08756 1.34982 36937 ft 394 kts 249°
2026-05-06 07:32 39.06763 1.28441 36939 ft 394 kts 249°
2026-05-06 07:33 39.04757 1.21867 36937 ft 394 kts 249°
2026-05-06 07:33 39.02746 1.15302 36937 ft 394 kts 249°
2026-05-06 07:34 39.00731 1.08741 36942 ft 393 kts 249°
2026-05-06 07:34 38.98727 1.02235 36948 ft 393 kts 249°
2026-05-06 07:35 38.96709 0.95686 36942 ft 393 kts 249°
2026-05-06 07:35 38.94679 0.89147 36953 ft 393 kts 249°
2026-05-06 07:36 38.92655 0.82608 36949 ft 393 kts 249°
2026-05-06 07:36 38.90637 0.76114 36971 ft 393 kts 249°
2026-05-06 07:37 38.88615 0.69600 36925 ft 392 kts 249°
2026-05-06 07:37 38.86590 0.63089 36960 ft 392 kts 249°
2026-05-06 07:38 38.84569 0.56626 36954 ft 392 kts 249°
2026-05-06 07:38 38.82532 0.50135 36945 ft 392 kts 248°
2026-05-06 07:39 38.79804 0.44047 36945 ft 394 kts 239°
2026-05-06 07:39 38.76769 0.38231 36947 ft 394 kts 238°
2026-05-06 07:40 38.73736 0.32396 36942 ft 393 kts 239°
2026-05-06 07:40 38.70708 0.26559 36951 ft 393 kts 239°
2026-05-06 07:41 38.67694 0.20749 36950 ft 393 kts 239°
2026-05-06 07:41 38.64660 0.14920 36939 ft 393 kts 239°
2026-05-06 07:42 38.61625 0.09087 36951 ft 393 kts 239°
2026-05-06 07:42 38.58601 0.03288 36951 ft 393 kts 239°
2026-05-06 07:43 38.55557 -0.02529 36945 ft 393 kts 238°
2026-05-06 07:43 38.52534 -0.08292 36951 ft 392 kts 238°
2026-05-06 07:44 38.49486 -0.14094 36951 ft 392 kts 238°
2026-05-06 07:44 38.46461 -0.19857 36947 ft 392 kts 238°
2026-05-06 07:45 38.43425 -0.25628 36951 ft 392 kts 238°
2026-05-06 07:45 38.40887 -0.30443 36937 ft 392 kts 238°
2026-05-06 07:46 38.37835 -0.36225 36936 ft 392 kts 238°
2026-05-06 07:46 38.34784 -0.41997 36932 ft 392 kts 238°
2026-05-06 07:47 38.31728 -0.47762 36936 ft 392 kts 238°
2026-05-06 07:47 38.28690 -0.53486 36933 ft 392 kts 238°
2026-05-06 07:48 38.25923 -0.59432 36931 ft 390 kts 246°
2026-05-06 07:48 38.23656 -0.65721 36934 ft 390 kts 247°
2026-05-06 07:49 38.21406 -0.71966 36932 ft 390 kts 246°
2026-05-06 07:49 38.19128 -0.78247 36954 ft 389 kts 246°
2026-05-06 07:50 38.16871 -0.84507 36933 ft 389 kts 246°
2026-05-06 07:50 38.14613 -0.90722 36945 ft 389 kts 246°
2026-05-06 07:51 38.12358 -0.96976 36961 ft 389 kts 246°
2026-05-06 07:51 38.10087 -1.03211 36960 ft 389 kts 246°
2026-05-06 07:52 38.07804 -1.09449 36963 ft 389 kts 246°
2026-05-06 07:52 38.05537 -1.15645 36969 ft 389 kts 246°
2026-05-06 07:53 38.03255 -1.21875 36965 ft 389 kts 246°
2026-05-06 07:53 38.00965 -1.28101 36968 ft 389 kts 246°
2026-05-06 07:54 37.98693 -1.34287 36966 ft 389 kts 246°
2026-05-06 07:54 37.96394 -1.40510 36962 ft 389 kts 246°
2026-05-06 07:55 37.94109 -1.46691 36946 ft 388 kts 246°
2026-05-06 07:55 37.91811 -1.52893 36980 ft 388 kts 246°
2026-05-06 07:56 37.89505 -1.59103 36961 ft 388 kts 246°
2026-05-06 07:56 37.87214 -1.65246 36954 ft 388 kts 246°
2026-05-06 07:57 37.84891 -1.71447 36953 ft 388 kts 246°
2026-05-06 07:57 37.82574 -1.77630 36956 ft 388 kts 246°
2026-05-06 07:58 37.80277 -1.83777 36958 ft 388 kts 246°
2026-05-06 07:58 37.77972 -1.89955 36956 ft 388 kts 246°
2026-05-06 07:59 37.75657 -1.96128 36954 ft 389 kts 246°
2026-05-06 07:59 37.73337 -2.02276 36956 ft 388 kts 245°
2026-05-06 08:00 37.71010 -2.08439 36953 ft 388 kts 245°
2026-05-06 08:00 37.68684 -2.14597 36941 ft 389 kts 245°
2026-05-06 08:01 37.66347 -2.20757 36956 ft 387 kts 245°
2026-05-06 08:01 37.64029 -2.26856 36981 ft 387 kts 245°
2026-05-06 08:02 37.61693 -2.32990 36960 ft 387 kts 245°
2026-05-06 08:02 37.59368 -2.39092 36959 ft 387 kts 245°
2026-05-06 08:03 37.57030 -2.45221 36959 ft 388 kts 245°
2026-05-06 08:03 37.54681 -2.51342 36957 ft 387 kts 245°
2026-05-06 08:04 37.52347 -2.57421 36957 ft 387 kts 245°
2026-05-06 08:04 37.49993 -2.63538 36960 ft 387 kts 245°
2026-05-06 08:05 37.47647 -2.69638 36961 ft 387 kts 245°
2026-05-06 08:05 37.45319 -2.75677 36951 ft 381 kts 245°
2026-05-06 08:06 37.43002 -2.81690 36949 ft 385 kts 245°
2026-05-06 08:06 37.40661 -2.87745 36956 ft 386 kts 245°
2026-05-06 08:07 37.39496 -2.90748 36720 ft 380 kts 245°
2026-05-06 08:07 37.38335 -2.93735 36167 ft 379 kts 245°
2026-05-06 08:07 37.37180 -2.96709 35613 ft 379 kts 245°
2026-05-06 08:07 37.36022 -2.99683 35050 ft 378 kts 244°
2026-05-06 08:08 37.34637 -3.02519 34072 ft 387 kts 233°
2026-05-06 08:08 37.32701 -3.04967 32697 ft 403 kts 223°
2026-05-06 08:08 37.30452 -3.07185 31296 ft 417 kts 221°
2026-05-06 08:08 37.28128 -3.09414 29824 ft 423 kts 221°
2026-05-06 08:09 37.25811 -3.11653 28211 ft 426 kts 221°
2026-05-06 08:09 37.23468 -3.13940 26826 ft 426 kts 221°
2026-05-06 08:09 37.21152 -3.16208 25947 ft 420 kts 221°
2026-05-06 08:09 37.18855 -3.18462 25240 ft 417 kts 221°
2026-05-06 08:10 37.16573 -3.20706 24603 ft 414 kts 221°
2026-05-06 08:10 37.14314 -3.22925 23964 ft 412 kts 221°
2026-05-06 08:10 37.12066 -3.25129 23270 ft 409 kts 221°
2026-05-06 08:10 37.09821 -3.27324 22564 ft 406 kts 221°
2026-05-06 08:11 37.07601 -3.29498 21861 ft 404 kts 220°
2026-05-06 08:11 37.05414 -3.31640 21175 ft 403 kts 220°
2026-05-06 08:11 37.03206 -3.33802 20520 ft 402 kts 220°
2026-05-06 08:11 37.01009 -3.35950 19872 ft 399 kts 220°
2026-05-06 08:12 36.98814 -3.38092 19240 ft 398 kts 220°
2026-05-06 08:12 36.96630 -3.40219 18623 ft 396 kts 220°
2026-05-06 08:12 36.94479 -3.42316 18000 ft 395 kts 220°
2026-05-06 08:12 36.92312 -3.44426 17341 ft 394 kts 220°
2026-05-06 08:13 36.90148 -3.46531 16704 ft 393 kts 220°
2026-05-06 08:13 36.87982 -3.48634 16089 ft 392 kts 220°
2026-05-06 08:13 36.85859 -3.50693 15500 ft 391 kts 219°
2026-05-06 08:13 36.83717 -3.52772 14911 ft 389 kts 219°
2026-05-06 08:14 36.81581 -3.54845 14323 ft 388 kts 219°
2026-05-06 08:14 36.79447 -3.56917 13709 ft 388 kts 219°
2026-05-06 08:14 36.77312 -3.58986 13062 ft 387 kts 219°
2026-05-06 08:14 36.75188 -3.61040 12464 ft 383 kts 219°
2026-05-06 08:15 36.73124 -3.63037 11904 ft 376 kts 219°
2026-05-06 08:15 36.71071 -3.65022 11433 ft 366 kts 219°
2026-05-06 08:15 36.69100 -3.66924 11139 ft 350 kts 219°
2026-05-06 08:15 36.67217 -3.68739 10921 ft 334 kts 219°
2026-05-06 08:16 36.65421 -3.70470 10730 ft 319 kts 219°
2026-05-06 08:16 36.63705 -3.72124 10565 ft 305 kts 219°
2026-05-06 08:16 36.62067 -3.73705 10423 ft 291 kts 219°
2026-05-06 08:16 36.60481 -3.75232 10180 ft 284 kts 219°
2026-05-06 08:17 36.58940 -3.76716 9821 ft 282 kts 219°
2026-05-06 08:17 36.57386 -3.78210 9401 ft 280 kts 219°
2026-05-06 08:17 36.55840 -3.79697 9020 ft 281 kts 219°
2026-05-06 08:17 36.54295 -3.81182 8685 ft 281 kts 219°
2026-05-06 08:18 36.52746 -3.82669 8355 ft 281 kts 219°
2026-05-06 08:18 36.51212 -3.84141 8030 ft 281 kts 219°
2026-05-06 08:18 36.49657 -3.85629 7709 ft 280 kts 219°
2026-05-06 08:18 36.48125 -3.87093 7402 ft 277 kts 219°
2026-05-06 08:19 36.46615 -3.88541 7104 ft 275 kts 220°
2026-05-06 08:19 36.45125 -3.89965 6969 ft 264 kts 220°
2026-05-06 08:19 36.43717 -3.91309 6998 ft 246 kts 220°
2026-05-06 08:19 36.42398 -3.92571 7036 ft 231 kts 219°
2026-05-06 08:20 36.41171 -3.93748 7016 ft 214 kts 220°
2026-05-06 08:20 36.40000 -3.94875 7032 ft 213 kts 220°
2026-05-06 08:20 36.38861 -3.96039 7033 ft 210 kts 225°
2026-05-06 08:20 36.37764 -3.97260 7019 ft 211 kts 225°
2026-05-06 08:21 36.36684 -3.98465 7050 ft 212 kts 224°
2026-05-06 08:21 36.35589 -3.99685 7021 ft 212 kts 224°
2026-05-06 08:21 36.34628 -4.01055 7035 ft 210 kts 244°
2026-05-06 08:21 36.34284 -4.02781 7042 ft 209 kts 274°
2026-05-06 08:22 36.34684 -4.04490 7019 ft 208 kts 302°
2026-05-06 08:22 36.35615 -4.05871 7046 ft 209 kts 313°
2026-05-06 08:22 36.36633 -4.07161 7027 ft 208 kts 312°
2026-05-06 08:22 36.37622 -4.08460 7023 ft 209 kts 312°
2026-05-06 08:23 36.38604 -4.09787 6921 ft 206 kts 310°
2026-05-06 08:23 36.39560 -4.11105 6746 ft 205 kts 311°
2026-05-06 08:23 36.40508 -4.12416 6548 ft 199 kts 311°
2026-05-06 08:23 36.41397 -4.13644 6482 ft 183 kts 311°
2026-05-06 08:24 36.42203 -4.14758 6384 ft 168 kts 310°
2026-05-06 08:24 36.42967 -4.15823 6096 ft 166 kts 311°
2026-05-06 08:24 36.43756 -4.16909 5697 ft 175 kts 311°
2026-05-06 08:24 36.44579 -4.18045 5445 ft 177 kts 311°
2026-05-06 08:25 36.45408 -4.19173 5225 ft 174 kts 311°
2026-05-06 08:25 36.46256 -4.20257 5020 ft 174 kts 311°
2026-05-06 08:25 36.47073 -4.21368 4822 ft 176 kts 310°
2026-05-06 08:25 36.47893 -4.22503 4602 ft 176 kts 310°
2026-05-06 08:26 36.48704 -4.23633 4389 ft 173 kts 310°
2026-05-06 08:26 36.49511 -4.24759 4175 ft 172 kts 309°
2026-05-06 08:26 36.50305 -4.25868 3961 ft 173 kts 310°
2026-05-06 08:26 36.51099 -4.26976 3754 ft 174 kts 310°
2026-05-06 08:27 36.51890 -4.28081 3538 ft 170 kts 310°
2026-05-06 08:27 36.52683 -4.29188 3326 ft 172 kts 310°
2026-05-06 08:27 36.53474 -4.30293 3117 ft 169 kts 310°
2026-05-06 08:27 36.54254 -4.31384 2909 ft 169 kts 310°
2026-05-06 08:28 36.55037 -4.32478 2705 ft 172 kts 311°
2026-05-06 08:28 36.55832 -4.33589 2480 ft 170 kts 310°
2026-05-06 08:28 36.56617 -4.34686 2272 ft 170 kts 311°
2026-05-06 08:28 36.57399 -4.35780 2031 ft 168 kts 312°
2026-05-06 08:29 36.58147 -4.36826 1884 ft 155 kts 312°
2026-05-06 08:29 36.58809 -4.37753 1677 ft 130 kts 312°
2026-05-06 08:29 36.59398 -4.38576 1669 ft 126 kts 312°
2026-05-06 08:29 36.59975 -4.39384 1682 ft 127 kts 312°
2026-05-06 08:30 36.60568 -4.40213 1692 ft 128 kts 312°
2026-05-06 08:30 36.61153 -4.41031 1626 ft 125 kts 312°
2026-05-06 08:30 36.61730 -4.41840 1463 ft 124 kts 311°
2026-05-06 08:30 36.62304 -4.42644 1302 ft 125 kts 311°
2026-05-06 08:31 36.62871 -4.43438 1131 ft 124 kts 310°
2026-05-06 08:31 36.63452 -4.44252 965 ft 125 kts 310°
2026-05-06 08:31 36.64029 -4.45059 802 ft 124 kts 309°
2026-05-06 08:31 36.64604 -4.45865 643 ft 125 kts 308°
2026-05-06 08:32 36.65179 -4.46671 483 ft 124 kts 308°
2026-05-06 08:32 36.65559 -4.47204 377 ft 124 kts 308°
2026-05-06 08:32 36.66315 -4.48263 154 ft 124 kts 308°
2026-05-06 08:32 36.66873 -4.49055 55 ft 113 kts 308°
2026-05-06 08:33 36.67162 -4.49463 52 ft 70 kts 311°
2026-05-06 08:33 36.67277 -4.49587 53 ft 15 kts 343°
2026-05-06 08:33 36.67371 -4.49623 52 ft 0 kts 338°
2026-05-06 08:33 36.67472 -4.49666 49 ft 17 kts 346°
2026-05-06 08:34 36.67564 -4.49662 48 ft 15 kts 30°
2026-05-06 08:34 36.67666 -4.49533 47 ft 5 kts 60°
2026-05-06 08:34 36.67684 -4.49508 47 ft 0 kts 47°
2026-05-06 08:35 36.67686 -4.49505 47 ft 0 kts 46°